Sigfox identifier Datetime Temperature Humidity SNR
003BDE7F 2018-10-09 08:45:56 20.6 39 9.8
003BDE7F 2018-10-09 07:37:44 20.7 38 9.7
003BDE7F 2018-10-09 06:29:36 20.7 38 9.7
003BDE7F 2018-10-09 01:57:00 20.6 38 9.9
003BDE7F 2018-10-09 00:48:48 20.7 38 10
003BDE7F 2018-10-08 23:40:41 20.6 38 10.2
003BDE7F 2018-10-08 22:32:32 20.6 38 10.3
003BDE7F 2018-10-08 20:16:24 20.5 38 11
003BDE7F 2018-10-08 18:00:12 20.5 37 11
003BDE7F 2018-10-08 16:52:09 20.5 37 11.3
003BDE7F 2018-10-08 15:43:57 20.4 37 11.1
003BDE7F 2018-10-08 14:35:50 20.3 37 11.3
003BDE7F 2018-10-08 13:27:45 20.3 37 11.7
003BDE7F 2018-10-08 05:30:42 20.5 38 11.7
003BDE7F 2018-10-05 17:15:32 21.1 39 11.7
003BDE7F 2018-10-05 14:59:12 20.9 38 11.7
003BDE7F 2018-10-05 13:51:03 20.9 37 11.9
003BDE7F 2018-10-05 08:10:13 20.7 33 12.1
003BDE7F 2018-10-05 07:02:00 20.6 33 12.2
003BDE7F 2018-10-05 05:53:51 20.7 33 12.2
003BDE7F 2018-10-05 04:45:38 20.7 33 12.1
003BDE7F 2018-10-05 03:37:27 20.7 33 13.2
003BDE7F 2018-10-05 02:29:12 20.7 33 13.1
003BDE7F 2018-10-05 01:21:03 20.7 33 13.2
003BDE7F 2018-10-05 00:12:49 20.7 33 15.6
003BDE7F 2018-10-04 23:04:39 20.6 33 18.8
003BDE7F 2018-10-04 21:56:30 20.7 33 18.8
003BDE7F 2018-10-04 20:48:17 20.6 33 18.8
003BDE7F 2018-10-04 19:40:02 20.5 33 18.8
003BDE7F 2018-10-04 12:50:48 20.5 34 18.8
003BDE7F 2018-10-04 11:42:30 20.3 35 18.8
003BDE7F 2018-10-04 10:34:16 20.3 36 20.6
003BDE7F 2018-10-04 08:17:47 20.2 36 20.5
003BDE7F 2018-10-04 07:09:34 20.3 38 20.5
003BDE7F 2018-10-04 06:01:19 20.4 38 20.5
003BDE7F 2018-10-04 04:53:04 20.3 38 20.5
003BDE7F 2018-10-04 03:44:49 20.4 39 20.5
003BDE7F 2018-10-04 02:36:35 20.4 39 20.4
003BDE7F 2018-10-04 01:28:21 20.4 39 20.5
003BDE7F 2018-10-04 00:20:00 20.5 40 20.6
003BDE7F 2018-10-03 23:11:45 20.4 40 20.6
003BDE7F 2018-10-03 22:03:31 20.4 40 20.6
003BDE7F 2018-10-03 20:55:10 20.4 41 20.5
003BDE7F 2018-10-03 19:46:52 20.5 41 20.5
003BDE7F 2018-10-03 18:38:34 20.4 41 20.6
003BDE7F 2018-10-03 17:30:19 20.5 41 20.6
003BDE7F 2018-10-03 16:21:58 20.5 41 20.3
003BDE7F 2018-10-03 14:05:22 20.4 41 20.4
003BDE7F 2018-10-03 12:57:08 20.5 41 20.4
003BDE7F 2018-10-03 11:48:49 20.5 41 19.7
003BDE7F 2018-10-03 10:40:31 20.4 41 17.3
003BDE7F 2018-10-03 07:15:34 20.2 41 17.3
003BDE7F 2018-10-03 06:07:19 20.2 41 17.3
003BDE7F 2018-10-03 04:59:02 20.2 41 17.3
003BDE7F 2018-10-03 03:50:48 20.2 41 17.6
003BDE7F 2018-10-03 02:42:31 20.2 41 17.7
003BDE7F 2018-10-03 00:25:56 20.3 41 12.9
003BDE7F 2018-10-02 23:17:38 20.3 41 13
003BDE7F 2018-10-02 21:01:00 20.3 41 13.2
003BDE7F 2018-10-02 16:27:52 20.4 41 13.3
003BDE7F 2018-10-02 15:19:33 20.4 40 13.2
003BDE7F 2018-10-02 14:11:17 20.4 40 13.4
003BDE7F 2018-10-02 11:54:44 20.4 43 13.5
003BDE7F 2018-10-02 10:46:24 20.4 44 12.9
003BDE7F 2018-10-02 09:38:06 20.3 44 12.6
003BDE7F 2018-10-02 08:29:52 20.2 41 12.7
003BDE7F 2018-10-02 07:21:36 20.2 40 13
003BDE7F 2018-10-02 06:13:18 20.4 43 13.2
003BDE7F 2018-10-02 05:05:02 20.5 43 13.5
003BDE7F 2018-10-02 03:56:44 20.4 43 13.3
003BDE7F 2018-10-02 02:48:24 20.5 43 13.6
003BDE7F 2018-10-02 01:40:05 20.4 43 14
003BDE7F 2018-10-02 00:31:48 20.4 43 13.6
003BDE7F 2018-10-01 23:23:25 20.4 43 13.5
003BDE7F 2018-10-01 22:15:06 20.5 43 14.1
003BDE7F 2018-10-01 21:06:48 20.4 43 14.8
003BDE7F 2018-10-01 19:58:31 20.2 43 15.6
003BDE7F 2018-10-01 18:50:15 20.2 43 16.7
003BDE7F 2018-10-01 17:41:56 19.8 43 18.1
003BDE7F 2018-10-01 16:33:42 19.8 45 17.3
003BDE7F 2018-10-01 15:25:25 15.3 65 0